星链-32868 (STARLINK-32868)

导读

STARLINK-32868是美国于北京时间2025年2月1日08:00发射的星链卫星,星链计划是SpaceX推进的低轨卫星互联网项目,旨在实现全球覆盖高速网络接入。这类卫星部署在近地轨道,通常依托批量发射降低成本,补充星链星座规模,为偏远地区等提供网络服务,推动全球互联网普及。

基本信息
目录编号:
62854
目录名称:
STARLINK-32868
国际标识:
2025-022A
轨道中心:
EARTH
卫星名称:
星链-32868
卫星全名:
星链-32868 (STARLINK-32868)
卫星状态:
在轨 (已飞行581 天)
发射日期:
2025-02-01 UTC
国别 :
美国 (US)
星等 :
--
轨道信息
数据来源 国际轨道数据
星历时间: 2026-09-04T20:59:58+0800
18小时前
查看轨道信息
半长轴: 6840.847km
偏心率: 0.0001545
轨道倾角: 53.161°
近地点辐角 75.682°
升交点赤经 14.576°
平近点角 284.435°
近地点: 461.653km
远地点: 463.767km
周期: 93.848分钟
每日圈数: 15.343978
详细信息
固有亮度:
5
最大亮度:
2.5
卫星平台:
Starlink V1.0
覆盖范围:
全球
运营商:
太空探索技术公司
运营商所在国:
美国
制造商(研发单位):
太空探索技术公司
制造商所在国:
美国
使用方式:
暂无
卫星简介
Starlink 计划是 SpaceX 推出的全球卫星互联网项目,通过发射低轨道卫星,为全球尤其是偏远地区提供高速、低延迟的互联网服务。自 2019 年起,Starlink 已部署数千颗卫星,旨在缩小全球数字鸿沟,推动互联网普及。该项目还为军事、航空等行业提供通信支持,带来广泛经济效益。
2D轨道图
3D轨道图
轨道高度分析图
轨道倾角分析图
轨道综合分析图
查看轨道综合分析图
交会数据列表
事件ID 空间交会对象 最接近时刻(TCA) 交会距离 交会风险概率(CRP) 交会风险指数(CRI) 操作
CDM_260907-133605-785406-285421
2026-09-07T
13:36:30+0000
1.901 km
极远距离
2.861431E-6 低风险 0.44
CDM_260905-050304-623206-285422
2026-09-05T
05:03:36+0000
1.963 km
极远距离
2.465753E-6 低风险 0.43
CDM_260905-220105-407606-285421
2026-09-05T
22:01:01+0000
2.261 km
极远距离
1.749849E-6 低风险 0.4
CDM_260906-060504-750806-285421
HAWK-2B (47508)
2026-09-06T
06:05:47+0000
2.304 km
极远距离
1.635315E-6 低风险 0.39
CDM_260906-043104-750806-285421
HAWK-2B (47508)
2026-09-06T
04:31:56+0000
2.378 km
极远距离
1.539334E-6 低风险 0.39
CDM_260907-210006-285406-806821
2026-09-07T
21:00:01+0000
2.560 km
极远距离
1.153536E-6 低风险 0.36